TimeCDT,TemperatureF,Dew PointF,Humidity,Sea Level PressureIn,VisibilityMPH,Wind Direction,Wind SpeedMPH,Gust SpeedMPH,PrecipitationIn,Events,Conditions,WindDirDegrees,DateUTC
12:56 AM,45.0,41.9,89,30.10,10.0,North,8.1,-,N/A,,Overcast,360,2012-10-27 05:56:00
1:56 AM,45.0,41.9,89,30.10,10.0,North,10.4,-,N/A,,Overcast,350,2012-10-27 06:56:00
2:56 AM,43.9,41.9,93,30.09,3.0,North,11.5,-,0.01,Rain,Rain,350,2012-10-27 07:56:00
3:10 AM,44.6,42.8,93,30.05,10.0,North,12.7,18.4,0.00,Rain,Light Rain,360,2012-10-27 08:10:00
3:56 AM,43.0,41.9,96,30.09,5.0,North,10.4,18.4,0.00,Rain,Light Rain,360,2012-10-27 08:56:00
4:08 AM,42.8,42.8,100,30.05,4.0,North,8.1,-,0.00,Rain,Light Rain,360,2012-10-27 09:08:00
4:40 AM,42.8,42.8,100,30.06,9.0,North,13.8,-,0.00,Rain,Light Rain,350,2012-10-27 09:40:00
4:56 AM,43.0,41.9,96,30.09,9.0,North,10.4,17.3,0.00,,Overcast,360,2012-10-27 09:56:00
5:56 AM,43.0,41.0,93,30.08,10.0,North,10.4,-,N/A,,Overcast,360,2012-10-27 10:56:00
6:56 AM,43.0,41.0,93,30.09,10.0,North,11.5,18.4,N/A,,Overcast,350,2012-10-27 11:56:00
7:56 AM,41.9,41.0,97,30.10,6.0,North,11.5,-,N/A,,Overcast,10,2012-10-27 12:56:00
8:56 AM,43.9,41.0,90,30.11,5.0,North,11.5,16.1,N/A,,Overcast,10,2012-10-27 13:56:00
9:56 AM,43.9,41.0,90,30.11,6.0,North,9.2,-,N/A,,Overcast,10,2012-10-27 14:56:00
10:56 AM,45.9,41.9,86,30.10,10.0,North,10.4,-,N/A,,Overcast,10,2012-10-27 15:56:00
11:03 AM,46.4,42.8,87,30.07,10.0,North,6.9,-,N/A,,Overcast,360,2012-10-27 16:03:00
12:56 PM,46.9,41.9,83,30.08,10.0,North,9.2,-,N/A,,Overcast,360,2012-10-27 17:56:00
1:38 PM,48.2,41.0,76,30.03,10.0,North,12.7,19.6,N/A,,Overcast,350,2012-10-27 18:38:00
1:56 PM,47.8,41.9,80,30.05,10.0,North,10.4,-,0.01,,Overcast,350,2012-10-27 18:56:00
2:56 PM,47.8,41.9,80,30.05,10.0,North,11.5,19.6,N/A,,Overcast,360,2012-10-27 19:56:00
3:56 PM,47.8,41.9,80,30.04,10.0,North,11.5,-,N/A,,Overcast,350,2012-10-27 20:56:00
4:56 PM,47.8,41.9,80,30.04,10.0,North,12.7,-,N/A,,Overcast,350,2012-10-27 21:56:00
5:56 PM,47.8,41.9,80,30.05,10.0,North,11.5,-,N/A,,Overcast,360,2012-10-27 22:56:00
6:56 PM,47.8,41.9,80,30.07,10.0,North,12.7,20.7,N/A,,Overcast,360,2012-10-27 23:56:00
7:56 PM,46.9,41.9,83,30.06,10.0,North,11.5,17.3,N/A,,Overcast,360,2012-10-28 00:56:00
8:56 PM,47.8,41.9,80,30.06,10.0,North,10.4,-,N/A,,Overcast,360,2012-10-28 01:56:00
9:56 PM,47.8,41.0,77,30.05,10.0,North,10.4,17.3,N/A,,Overcast,360,2012-10-28 02:56:00
10:56 PM,47.8,39.9,74,30.04,10.0,North,9.2,-,N/A,,Overcast,350,2012-10-28 03:56:00
11:56 PM,47.8,37.9,69,30.03,10.0,North,12.7,17.3,N/A,,Overcast,350,2012-10-28 04:56:00